Location: Dallas
(32.7833°N, 96.8000°W)
Time: 14:33:56
(UTC-06:00)

Envisat - Pass Details

Date: 07 December 2021
Orbit: 764 x 766 km, 98.2° (Epoch: 28 January)

Event Time Altitude Azimuth Distance (km) Brightness Sun altitude
Rises 06:03:51 0° 0° (N) 3,236 6.1 -15.0°
Reaches altitude 10° 06:06:20 10° 352° (N) 2,306 5.2 -14.5°
Maximum altitude 06:10:51 33° 289° (WNW) 1,259 3.6 -13.6°
Drops below altitude 10° 06:15:21 10° 226° (SW) 2,293 5.2 -12.7°
Sets 06:17:49 0° 217° (SW) 3,215 6.0 -12.2°
